Voltar ao catálogo

STARLINK-4626

AtivoComunicaçõesSSO
NORAD 53685·PAYLOAD·🇺🇸 United States

Lançado Aug 31, 2022 de Vandenberg Space Force Base

Loading…

Próximas Passagens (próximas 24 horas)

TLE

AtualizadoSource: CelesTrak SupGP

Época: Sep 15, 2026, 02:42 UTC

1 53685C 22105AP  26258.11298611  .00045174  00000+0  31363-2 0  2585
2 53685  97.2848 132.1331 0002007  76.2456 177.8312 15.05635676    14

Acompanhe STARLINK-4626 em tempo real com AllMySat

Download on the App Store